Retour au catalogue

INTELSAT 33E DEB

ActifGEO
NORAD 61997·DEBRIS· XX

Lancé Aug 24, 2016 depuis Guiana Space Centre

Loading…

TLE

FraisSource: Space-Track

Époque: Sep 13, 2026, 18:36 UTC

1 61997U 16053P   26256.77553856  .00000075  00000-0  00000-0 0  9996
2 61997   1.7900  83.8693 0091352 273.9916  85.7457  1.01609446  7065

Suivez INTELSAT 33E DEB en temps réel avec AllMySat

Download on the App Store